Погода в Портленде

США     45°31′09″N   122°40′17″W
темп.,
°C
ветер,
м/с
пор.,
м/с
влажн.,
%
обл.,
%
осадки,
мм/ч
давл.,
гПа
погр.,
м
4 июля, пн
пн423:00+15ссз25728 0.0 1014133
02:00+12с11785 0.0 101434
05:00+11св11865 0.0 101536
08:00+14с117218 0.0 1015347
11:00+21з015219 0.0 10141005
14:00+24зюз22396 0.0 10131679
17:00+25зюз12345 0.0 10122070
20:00+23зсз12505 0.0 101245
5 июля, вт
вт523:00+17с136579 0.0 1013111
02:00+15с1268100 0.0 101393
05:00+14ссв1273100 0.0 101399
08:00+16с126699 0.0 1013265
11:00+20з1154100 0.0 1012701
14:00+20юз3456100 0.0 1012320
17:00+21ю235968 0.0 1012506
20:00+21юв2362100 0.0 1012175
6 июля, ср
ср623:00+18вюв1175100 0.0 101348
02:00+16св118253 0.0 101221
05:00+15св019096 0.0 101314
08:00+16всв0083100 0.0 1014272
11:00+21з116339 0.0 1013890
14:00+23юз335369 0.1 10121366
17:00+24зюз4349100 0.1 10121459
20:00+20зюз24738 0.2 1013176
7 июля, чт
чт723:00+17зсз1186100 0.5 101418
02:00+16зюз0191100 0.1 101531
05:00+16ююз0090100 0.1 101563
08:00+16ююз0184100 0.0 1016344
11:00+20зюз2262100 0.1 10161039
14:00+21юз2352100 0.0 10171466
17:00+24юз234261 0.0 10162117
20:00+20с236188 0.0 1017290
8 июля, пт
пт823:00+16ссз24695 0.0 1018146
02:00+15с0172100 0.0 1019101
05:00+15ссв1171100 0.0 1019149
08:00+16с1071100 0.0 1020311
11:00+21сз01533 0.0 1020958
14:00+24з334199 0.0 10192274
17:00+21сз4449100 0.0 10201159
20:00+20ссз245720 0.0 1021616